Location: Kershaw
(34.5481°N, 80.5823°W)
Time: 13:47:19
(UTC+00:00)

Tiros 1 despin weight - Pass Details

Date: 08 October 2022
Orbit: 590 x 637 km, 48.2° (Epoch: 25 November)

Event Time Altitude Azimuth Distance (km) Brightness Sun altitude
Rises 22:59:33 0° 311° (NW) 2,860 ? -1.4°
Reaches altitude 10° 23:02:31 10° 331° (NNW) 1,966 ? -2.0°
Maximum altitude 23:05:34 18° 14° (NNE) 1,540 ? -2.6°
Drops below altitude 10° 23:08:39 10° 57° (ENE) 1,985 ? -3.3°
Enters shadow 23:10:35 - 71° (ENE) 2,544 ? -3.7°
Sets 23:11:40 0° 77° (ENE) 2,901 - -3.9°
